FW9685 Weather Reports


time (UTC)temp
C
wind
direction
speed
KPH
gust
KPH
rain 1hr
cm
rain 24hr
cm
rain mn
cm
humidity
%
barometer
mb
20260506073054 21 219 9.7 14.5 0.00 0.00 0.00 39 1011.1
20260506071554 20 233 9.7 12.9 0.00 0.00 0.00 42 1011.0
20260506061556 20 191 8.0 9.7 0.00 0.00 0.00 39 1011.3
20260506044619 21 192 3.2 9.7 0.00 0.00 0.00 37 1010.6
20260506043052 22 193 8.0 11.3 0.00 0.00 0.00 35 1010.9
20260506041553 21 160 0.0 8.0 0.00 0.00 0.00 37 1010.4
20260506040056 21 164 8.0 14.5 0.00 0.00 0.00 38 1010.2
20260506034553 21 149 9.7 16.1 0.00 0.00 0.00 38 1010.1
20260506033055 22 140 14.5 17.7 0.00 0.00 0.00 38 1009.7
20260506031553 22 150 9.7 14.5 0.00 0.00 0.00 37 1009.4
20260506030057 22 153 8.0 11.3 0.00 0.00 0.00 34 1009.3
20260506024559 23 0 1.6 4.8 0.00 0.00 0.00 32 1009.1
20260506023100 23 0 0.0 1.6 0.00 0.00 0.00 32 1009.1
20260506021606 23 0 0.0 1.6 0.00 0.00 0.00 32 1009.2
20260506020052 23 0 0.0 6.4 0.00 0.00 0.00 31 1009.1
20260506014553 23 310 4.8 14.5 0.00 0.00 0.00 31 1009.2
20260506013104 25 304 16.1 22.5 0.00 0.00 0.00 29 1009.0
20260506011552 25 302 14.5 25.7 0.00 0.00 0.00 29 1009.1
20260506010110 25 290 19.3 32.2 0.00 0.00 0.00 28 1009.0
20260506004558 26 286 20.9 35.4 0.00 0.00 0.00 27 1009.1
20260506003059 26 285 25.7 33.8 0.00 0.00 0.00 26 1009.4
20260506001559 26 277 19.3 40.2 0.00 0.00 0.00 27 1009.5
20260506000057 26 273 29.0 35.4 0.00 0.00 0.00 26 1009.6
20260505234607 26 259 30.6 48.3 0.00 0.00 0.00 25 1009.5
20260505233051 26 248 37.0 49.9 0.00 0.00 0.00 25 1009.5
20260505231553 26 266 37.0 49.9 0.00 0.00 0.00 24 1009.3
20260505230054 26 270 40.2 56.3 0.00 0.00 0.00 24 1009.5
20260505224554 27 251 37.0 54.7 0.00 0.00 0.00 23 1009.5
20260505223055 27 265 33.8 48.3 0.00 0.00 0.00 23 1009.6
20260505221553 27 275 29.0 51.5 0.00 0.00 0.00 23 1009.7
20260505220055 27 257 35.4 46.7 0.00 0.00 0.00 22 1009.5
20260505214609 27 238 24.1 49.9 0.00 0.00 0.00 23 1009.9
20260505213101 27 256 30.6 46.7 0.00 0.00 0.00 22 1009.9
20260505211556 27 262 32.2 43.5 0.00 0.00 0.00 22 1010.2
20260505210059 27 254 33.8 45.1 0.00 0.00 0.00 20 1010.5
20260505204604 28 238 37.0 49.9 0.00 0.00 0.00 20 1010.0
20260505203057 27 223 29.0 43.5 0.00 0.00 0.00 20 1010.1
20260505201555 27 257 20.9 35.4 0.00 0.00 0.00 21 1010.2
20260505200105 27 239 24.1 33.8 0.00 0.00 0.00 22 1010.4
20260505194606 27 261 20.9 30.6 0.00 0.00 0.00 22 1010.4
20260505193053 27 267 20.9 32.2 0.00 0.00 0.00 23 1010.7
20260505191556 27 279 20.9 37.0 0.00 0.00 0.00 22 1010.8
20260505190056 27 279 27.4 38.6 0.00 0.00 0.00 23 1010.9
20260505184555 27 257 29.0 43.5 0.00 0.00 0.00 22 1010.9
20260505183055 27 269 27.4 48.3 0.00 0.00 0.00 21 1011.0
20260505181553 28 292 30.6 45.1 0.00 0.00 0.00 22 1011.2
20260505180108 27 265 32.2 48.3 0.00 0.00 0.00 23 1011.3
20260505174603 27 278 32.2 51.5 0.00 0.00 0.00 22 1011.2
20260505173051 27 271 29.0 49.9 0.00 0.00 0.00 24 1011.3
20260505171551 27 280 37.0 48.3 0.00 0.00 0.00 24 1011.1
20260505170053 27 269 29.0 43.5 0.00 0.00 0.00 24 1011.2
20260505164552 26 269 29.0 45.1 0.00 0.00 0.00 24 1011.2
20260505163054 27 281 32.2 45.1 0.00 0.00 0.00 23 1011.1
20260505161604 26 284 33.8 48.3 0.00 0.00 0.00 23 1011.3
20260505153053 25 275 24.1 32.2 0.00 0.00 0.00 25 1010.8
20260505151552 25 264 17.7 29.0 0.00 0.00 0.00 27 1010.8
20260505140108 21 247 16.1 22.5 0.00 0.00 0.00 52 1009.6
20260505124556 17 223 14.5 20.9 0.00 0.00 0.00 76 1009.2
20260505123101 17 204 14.5 17.7 0.00 0.00 0.00 79 1008.9
20260505121551 16 204 14.5 19.3 0.00 0.00 0.00 79 1008.6
20260505120057 16 200 12.9 16.1 0.00 0.00 0.00 79 1008.5
20260505114553 17 192 14.5 17.7 0.00 0.00 0.00 78 1008.4
20260505113106 17 212 12.9 17.7 0.00 0.00 0.00 77 1008.2
20260505111553 17 209 12.9 17.7 0.00 0.00 0.00 77 1008.5
20260505101557 18 219 16.1 24.1 0.00 0.00 0.00 74 1008.1
20260505100054 18 211 17.7 24.1 0.00 0.00 0.00 73 1008.0
20260505094553 19 224 16.1 22.5 0.00 0.00 0.00 73 1008.1
20260505093052 19 209 16.1 22.5 0.00 0.00 0.00 73 1008.0
20260505091611 20 205 16.1 25.7 0.00 0.00 0.00 72 1008.0
20260505090052 20 209 20.9 27.4 0.00 0.00 0.00 71 1008.0
20260505084552 20 202 20.9 30.6 0.00 0.00 0.00 70 1007.8
20260505083103 20 209 17.7 29.0 0.00 0.00 0.00 69 1007.9
20260505081602 20 191 22.5 33.8 0.00 0.00 0.00 68 1008.2